Waarnemingen

Advertentie
Mijn weer
Rotterdam Zestienhoven, Nederland (6344): temperatuur & dauwpunt: 15.08.2017 11:00:00 - 21.08.2017 11:00:00 (CEST)Rotterdam Zestienhoven, Nederland (6344): temperatuur 5cm: 15.08.2017 11:00:00 - 21.08.2017 11:00:00 (CEST)Rotterdam Zestienhoven, Nederland (6344): windsnelheid & windstoten: 15.08.2017 11:00:00 - 21.08.2017 11:00:00 (CEST)Rotterdam Zestienhoven, Nederland (6344): windrichting: 15.08.2017 11:00:00 - 21.08.2017 11:00:00 (CEST)Rotterdam Zestienhoven, Nederland (6344): luchtdruk: 15.08.2017 11:00:00 - 21.08.2017 11:00:00 (CEST)Rotterdam Zestienhoven, Nederland (6344): zicht: 15.08.2017 11:00:00 - 21.08.2017 11:00:00 (CEST)Rotterdam Zestienhoven, Nederland (6344): neerslag: 15.08.2017 11:00:00 - 21.08.2017 11:00:00 (CEST)
Datum & Tijd tt [°C] td [°C] tt 5cm [°C] ff [km/u] ff [kn] fx [km/u] fx [kn] dd ppp [hPa] vv [km] rr [mm]
21.08.2017 11:00:00 17,2 14,1 17,6 9 5 22 12 WZW 1023,7 10 0,0
21.08.2017 10:00:00 18,2 14,7 19,6 13 7 18 10 ZZW 1023,6 10 0,0
21.08.2017 09:00:00 16,3 14,7 16,3 9 5 25 14 Z 1023,4 10 0,0
21.08.2017 08:00:00 14,7 13,6 14,2 11 6 18 10 Z 1022,8 10 0,0
21.08.2017 07:00:00 14,2 13,3 13,3 9 5 14 8 Z 1022,9 10 0,0
21.08.2017 06:00:00 13,5 12,9 11,4 9 5 14 8 Z 1022,8 10 0,0
21.08.2017 05:00:00 13,6 13,1 10,6 8 4 11 6 Z 1023,0 10 0,0
21.08.2017 04:00:00 13,7 13,0 10,6 4 2 7 4 - 1023,2 10 0,0
21.08.2017 03:00:00 14,1 12,4 11,6 5 3 7 4 ZZW 1023,3 10 0,0
21.08.2017 02:00:00 14,7 11,9 12,6 4 2 7 4 ZW 1023,4 10 0,0
21.08.2017 01:00:00 14,5 12,0 13,1 5 3 11 6 ZW 1023,6 10 0,0
21.08.2017 00:00:00 14,9 12,3 13,6 8 4 14 8 ZW 1023,7 10 0,0
20.08.2017 23:00:00 14,7 11,4 12,7 8 4 11 6 ZW 1024,0 10 0,0
20.08.2017 22:00:00 14,3 10,8 12,5 8 4 14 8 ZW 1024,0 10 0,0
20.08.2017 21:00:00 15,2 10,7 14,0 11 6 18 10 WZW 1023,8 10 0,0
20.08.2017 20:00:00 16,3 11,0 15,8 13 7 22 12 W 1023,7 10 0,0
20.08.2017 19:00:00 16,9 10,8 17,1 15 8 25 14 W 1023,5 10 0,0
20.08.2017 18:00:00 17,7 11,0 18,2 16 9 29 16 W 1023,8 10 0,0
20.08.2017 17:00:00 17,5 11,5 17,7 21 11 29 16 W 1024,0 10 0,0
20.08.2017 16:00:00 17,2 11,2 17,5 16 9 36 19 W 1023,7 10 0,0
20.08.2017 15:00:00 18,8 12,3 20,4 22 12 36 19 W 1023,6 10 0,0
20.08.2017 14:00:00 18,5 11,5 19,4 21 11 40 21 W 1023,3 10 0,0
20.08.2017 13:00:00 17,4 11,4 18,5 21 11 36 19 W 1022,9 10 0,0
20.08.2017 12:00:00 18,1 12,6 19,2 18 10 32 18 WZW 1022,6 10 0,0
20.08.2017 11:00:00 17,9 11,3 19,3 18 10 29 16 W 1022,4 10 0,0
20.08.2017 10:00:00 17,2 12,6 16,6 13 7 25 14 W 1021,7 10 0,0
20.08.2017 09:00:00 16,4 12,2 16,3 13 7 25 14 W 1021,3 10 0,0
20.08.2017 08:00:00 15,4 12,1 14,5 11 6 18 10 W 1020,6 10 0,0
20.08.2017 07:00:00 14,2 11,2 12,9 11 6 14 8 WZW 1020,2 10 0,0
20.08.2017 06:00:00 13,7 10,9 12,3 9 5 14 8 W 1019,9 10 0,0
20.08.2017 05:00:00 13,9 10,4 12,3 9 5 18 10 W 1019,7 10 0,0
20.08.2017 04:00:00 14,5 10,9 13,3 13 7 22 12 W 1019,3 10 0,0
20.08.2017 03:00:00 14,7 11,4 13,3 11 6 18 10 W 1019,0 10 0,1
20.08.2017 02:00:00 13,2 11,2 12,0 5 3 14 8 WZW 1018,9 10 0,0
20.08.2017 01:00:00 13,6 12,2 13,2 9 5 14 8 ZW 1018,9 10 0,3
20.08.2017 00:00:00 13,6 12,7 13,6 18 10 32 18 W 1018,9 5 2,2
19.08.2017 23:00:00 16,5 13,2 15,7 24 13 36 19 ZW 1018,1 10 0,0
19.08.2017 22:00:00 16,3 12,8 15,4 22 12 36 19 WZW 1018,0 10 0,0
19.08.2017 21:00:00 16,4 12,7 15,4 21 11 36 19 WZW 1017,8 10 0,0
19.08.2017 20:00:00 16,7 12,8 16,0 21 11 40 21 ZW 1017,4 10 0,1
19.08.2017 19:00:00 17,6 11,2 16,8 21 11 43 23 WZW 1017,4 10 0,0
19.08.2017 18:00:00 18,1 10,7 18,3 28 15 43 23 WZW 1017,5 10 0,0
19.08.2017 17:00:00 18,8 12,0 19,1 26 14 47 25 WZW 1017,3 10 0,0
19.08.2017 16:00:00 18,6 12,0 20,9 28 15 43 23 WZW 1017,0 10 0,0
19.08.2017 15:00:00 18,4 11,6 19,3 26 14 43 23 W 1016,7 10 0,0
19.08.2017 14:00:00 18,7 13,1 18,3 24 13 40 21 W 1016,1 10 0,0
19.08.2017 13:00:00 17,0 12,3 17,3 26 14 40 21 W 1015,5 10 0,0
19.08.2017 12:00:00 17,6 13,4 17,0 18 10 36 19 WZW 1015,0 10 0,0
19.08.2017 11:00:00 16,8 11,4 17,3 28 15 43 23 W 1014,7 10 0,0
19.08.2017 10:00:00 16,1 11,5 16,1 22 12 40 21 W 1014,1 10 0,0
19.08.2017 09:00:00 14,6 13,3 14,3 15 8 29 16 ZW 1013,5 10 0,1
19.08.2017 08:00:00 15,1 13,3 14,4 11 6 25 14 ZZW 1012,6 10 0,1
19.08.2017 07:00:00 14,1 13,3 13,8 22 12 47 25 ZW 1012,0 10 3,4
19.08.2017 06:00:00 14,3 12,8 13,7 26 14 43 23 ZZW 1011,2 10 1,5
19.08.2017 05:00:00 14,1 12,3 13,7 26 14 40 21 ZZW 1011,1 10 0,6
19.08.2017 04:00:00 14,5 11,7 13,7 22 12 36 19 ZZW 1011,3 10 0,0
19.08.2017 03:00:00 14,6 11,7 13,6 22 12 29 16 ZZW 1011,9 10 0,0
19.08.2017 02:00:00 15,0 9,7 13,5 21 11 32 18 ZW 1012,3 10 0,0
19.08.2017 01:00:00 14,7 9,3 13,1 18 10 32 18 WZW 1012,1 10 0,0
19.08.2017 00:00:00 14,9 10,1 13,1 21 11 29 16 ZW 1012,1 10 0,0
18.08.2017 23:00:00 14,3 10,8 12,2 13 7 29 16 ZW 1012,4 10 0,0
18.08.2017 22:00:00 12,1 10,5 11,2 11 6 36 19 ZW 1012,1 10 0,0
18.08.2017 21:00:00 15,3 11,0 15,1 29 16 47 25 WZW 1011,5 10 0,0
18.08.2017 20:00:00 17,8 12,1 17,1 29 16 50 27 WZW 1010,8 10 0,0
18.08.2017 19:00:00 19,1 13,3 19,3 26 14 50 27 W 1010,4 10 0,0
18.08.2017 18:00:00 19,9 13,9 20,8 26 14 43 23 WZW 1010,5 10 0,0
18.08.2017 17:00:00 19,8 13,6 20,4 26 14 43 23 WZW 1010,3 10 0,0
18.08.2017 16:00:00 19,4 14,3 20,7 28 15 40 21 WZW 1010,5 10 0,0
18.08.2017 15:00:00 19,5 14,3 20,4 24 13 43 23 WZW 1010,8 10 0,0
18.08.2017 14:00:00 19,0 14,7 19,3 26 14 43 23 WZW 1010,9 10 0,0
18.08.2017 13:00:00 19,0 15,8 19,1 21 11 36 19 ZW 1010,7 10 0,0
18.08.2017 12:00:00 18,1 16,8 18,4 22 12 40 21 ZZW 1011,1 10 0,2
18.08.2017 11:00:00 18,7 16,2 18,7 18 10 29 16 ZZW 1011,2 10 0,0
18.08.2017 10:00:00 18,2 15,7 17,8 16 9 25 14 ZZW 1011,2 10 0,0
18.08.2017 09:00:00 17,9 15,7 17,6 16 9 29 16 ZZW 1011,6 10 0,0
18.08.2017 08:00:00 17,3 15,6 17,0 15 8 25 14 ZZW 1011,7 10 0,0
18.08.2017 07:00:00 17,2 15,5 16,4 21 11 29 16 ZW 1011,4 10 0,0
18.08.2017 06:00:00 17,0 15,3 16,1 18 10 32 18 ZW 1011,8 10 0,0
18.08.2017 05:00:00 16,9 15,1 15,6 15 8 29 16 ZW 1012,2 10 0,0
18.08.2017 04:00:00 15,8 14,4 14,9 13 7 22 12 Z 1012,1 10 0,0
18.08.2017 03:00:00 16,0 14,4 14,9 15 8 29 16 Z 1012,3 10 0,0
18.08.2017 02:00:00 16,5 14,5 15,3 16 9 22 12 ZZW 1012,9 10 0,0
18.08.2017 01:00:00 17,0 14,5 15,6 16 9 32 18 ZW 1013,1 10 0,0
18.08.2017 00:00:00 17,4 14,0 15,8 21 11 29 16 ZW 1013,1 10 0,0
17.08.2017 23:00:00 17,3 14,4 15,7 16 9 32 18 ZW 1013,0 10 0,0
17.08.2017 22:00:00 18,4 14,3 16,5 22 12 40 21 ZW 1013,3 10 0,0
17.08.2017 21:00:00 18,9 16,4 17,3 16 9 32 18 WZW 1013,2 10 0,0
17.08.2017 20:00:00 19,9 16,9 19,1 21 11 40 21 ZW 1012,7 10 0,0
17.08.2017 19:00:00 20,2 18,1 19,7 18 10 32 18 ZZW 1012,6 10 0,0
17.08.2017 18:00:00 20,2 18,6 19,5 22 12 47 25 ZZW 1012,8 10 0,0
17.08.2017 17:00:00 19,5 18,0 18,9 22 12 36 19 ZZW 1013,0 10 0,0
17.08.2017 16:00:00 18,8 17,7 18,5 24 13 36 19 ZZW 1012,9 10 0,3
17.08.2017 15:00:00 18,7 17,3 18,3 18 10 36 19 ZZW 1013,3 10 0,1
17.08.2017 14:00:00 18,5 16,8 18,2 21 11 32 18 ZZW 1013,2 10 0,0
17.08.2017 13:00:00 17,9 16,0 17,9 18 10 36 19 ZZW 1013,3 10 0,0
17.08.2017 12:00:00 18,1 16,5 18,3 16 9 29 16 Z 1013,3 10 0,2
17.08.2017 11:00:00 17,2 16,5 17,1 24 13 36 19 ZZW 1013,7 4,9 1,7
17.08.2017 10:00:00 18,1 15,5 17,5 13 7 25 14 Z 1013,6 10 0,1
17.08.2017 09:00:00 17,9 15,4 16,7 15 8 25 14 Z 1013,6 10 0,3
17.08.2017 08:00:00 17,6 14,6 16,5 16 9 36 19 Z 1014,1 10 0,0
17.08.2017 07:00:00 18,2 13,7 16,8 18 10 29 16 Z 1014,0 10 0,0
17.08.2017 06:00:00 18,9 12,9 16,2 15 8 25 14 ZZO 1014,2 10 0,0
17.08.2017 05:00:00 18,0 12,6 14,6 13 7 22 12 ZZO 1015,1 10 0,0
17.08.2017 04:00:00 16,7 12,9 12,7 13 7 18 10 ZZO 1016,1 10 0,0
17.08.2017 03:00:00 15,2 13,7 11,7 8 4 14 8 ZZO 1016,7 10 0,0
17.08.2017 02:00:00 14,5 13,7 11,7 5 3 7 4 ZO 1017,3 10 0,0
17.08.2017 01:00:00 14,6 14,3 12,0 4 2 7 4 ZO 1017,9 10 0,0
17.08.2017 00:00:00 14,6 14,3 12,4 5 3 7 4 OZO 1018,4 10 0,0
16.08.2017 23:00:00 14,8 13,1 12,7 4 2 7 4 - 1018,8 10 0,0
16.08.2017 22:00:00 16,0 13,3 14,2 2 1 7 4 WZW 1019,6 10 0,0
16.08.2017 21:00:00 18,0 12,7 15,7 5 3 7 4 WZW 1019,5 10 0,0
16.08.2017 20:00:00 20,1 14,3 19,9 5 3 18 10 W 1019,4 10 0,0
16.08.2017 19:00:00 20,6 15,6 21,0 16 9 25 14 W 1019,8 10 0,0
16.08.2017 18:00:00 21,8 13,9 22,0 15 8 22 12 ZZW 1019,7 10 0,0
16.08.2017 17:00:00 21,9 13,4 22,5 13 7 25 14 ZZW 1019,9 10 0,0
16.08.2017 16:00:00 21,6 13,4 22,3 15 8 29 16 Z 1019,9 10 0,0
16.08.2017 15:00:00 21,6 14,4 22,0 18 10 29 16 ZZW 1020,4 10 0,0
16.08.2017 14:00:00 21,7 14,8 23,2 13 7 29 16 Z 1020,6 10 0,0
16.08.2017 13:00:00 20,7 15,0 23,1 15 8 29 16 Z 1021,0 10 0,0
16.08.2017 12:00:00 20,0 15,6 20,8 11 6 22 12 ZZW 1021,1 10 0,0
16.08.2017 11:00:00 19,7 15,4 20,9 16 9 29 16 Z 1021,2 10 0,0
16.08.2017 10:00:00 18,6 15,7 19,5 11 6 22 12 ZZO 1021,1 10 0,0
16.08.2017 09:00:00 17,2 15,8 17,3 9 5 18 10 Z 1020,9 10 0,0
16.08.2017 08:00:00 16,1 15,5 15,3 8 4 14 8 Z 1020,7 7 0,0
16.08.2017 07:00:00 14,2 14,2 11,3 8 4 11 6 ZZO 1020,2 2,8 0,0
16.08.2017 06:00:00 13,9 13,8 12,3 5 3 11 6 ZW 1019,9 2,2 0,0
16.08.2017 05:00:00 14,3 14,2 12,3 5 3 11 6 ZZO 1019,5 3,3 0,0
16.08.2017 04:00:00 15,8 15,7 13,2 9 5 11 6 Z 1019,4 2,5 0,0
16.08.2017 03:00:00 14,9 14,9 13,8 2 1 4 2 Z 1019,2 0,9 0,0
16.08.2017 02:00:00 14,7 14,6 12,9 4 2 7 4 - 1019,1 2,7 0,0
16.08.2017 01:00:00 14,8 14,8 12,8 2 1 4 2 WZW 1019,1 0,4 0,0
16.08.2017 00:00:00 15,6 15,2 14,1 5 3 11 6 W 1018,8 2,4 0,0
15.08.2017 23:00:00 16,7 16,0 15,6 8 4 11 6 W 1018,3 5 0,0
15.08.2017 22:00:00 17,4 16,3 16,6 9 5 18 10 W 1017,8 10 0,0
15.08.2017 21:00:00 18,2 16,3 17,6 11 6 18 10 W 1016,8 10 0,0
15.08.2017 20:00:00 19,6 16,8 19,6 11 6 18 10 W 1016,2 10 0,0
15.08.2017 19:00:00 19,7 16,8 20,0 13 7 18 10 WNW 1014,9 10 0,0
15.08.2017 18:00:00 21,0 17,6 21,3 13 7 22 12 WNW 1015,0 10 0,0
15.08.2017 17:00:00 20,8 18,2 22,0 5 3 14 8 W 1014,6 10 0,0
15.08.2017 16:00:00 19,3 17,9 19,5 2 1 7 4 - 1014,0 10 0,2
15.08.2017 15:00:00 18,4 17,8 18,5 5 3 14 8 WNW 1014,0 10 1,7
15.08.2017 14:00:00 18,2 17,0 17,7 11 6 22 12 ZO 1014,1 10 2,4
15.08.2017 13:00:00 18,7 17,3 18,4 9 5 25 14 W 1014,2 10 0,6
15.08.2017 12:00:00 18,8 16,9 18,4 15 8 25 14 ZO 1012,7 10 0,3
15.08.2017 11:00:00 18,1 16,0 17,1 9 5 25 14 ZZW 1014,7 10 0,4

tt = temperatuur
td = dauwpunt
tt 5cm = temperatuur 5cm
ff = windsnelheid
fx = windstoten
dd = windrichting
ppp = luchtdruk
vv = zicht
rr = neerslag

Weerstations in de omgeving